This demonstration page uses our WeatherBlox Daily Observations layout. Learn more.

Left ArrowRight Arrow

Hourly Observations for December 1, 2016

Temp ( °F °C ) Dew Point ( °F °C ) Humidity (%) Winds ( mph kmh ) Pressure ( in mb ) Visibility ( mi km ) Precip ( " mm )
12:53 am 00:53 Cloudy 23 -5 21 -6.1 92 92 Calm 29.96 1015 10 16 0.00 0.03
1:53 am 01:53 Cloudy 23 -5 21 -6.1 92 92 E 3 6 30.00 1016 10 16 0.00 0.00
2:53 am 02:53 Cloudy 23 -5 21 -6.1 92 92 E 3 6 29.97 1015 10 16 0.00 0.00
3:53 am 03:53 Cloudy 22 -5.6 20 -6.7 92 92 ENE 3 6 29.98 1015 10 16 0.00 0.00
4:53 am 04:53 Partly Cloudy 23 -5 20 -6.7 88 88 E 3 6 29.98 1015 10 16 0.00 0.00
5:53 am 05:53 Clear 20 -6.7 18 -7.8 92 92 ESE 3 6 29.98 1015 10 16 0.00 0.00
6:53 am 06:53 Clear 20 -6.7 18 -7.8 92 92 Calm 30.00 1016 10 16 0.00 0.00
7:53 am 07:53 Sunny 17 -8.3 16 -8.9 95 95 SE 3 6 30.01 1016 9 14 0.00 0.00
8:53 am 08:53 Sunny 21 -6.1 18 -7.8 88 88 NW 3 6 30.01 1016 9 14 0.00 0.00
9:53 am 09:53 Partly Cloudy 25 -3.9 22 -5.6 88 88 W 6 9 30.03 1017 10 16 0.00 0.00
10:53 am 10:53 Cloudy 35 1.7 27 -2.8 72 72 WSW 12 19 30.01 1016 10 16 0.00 0.00
11:53 am 11:53 Cloudy 35 1.7 25 -3.9 67 67 WNW 8 13 30.01 1016 10 16 0.00 0.00
12:41 pm 12:41 Cloudy 34 1.1 25 -3.9 70 70 WNW 8 13 30.03 1017 10 16 0.00 0.00
12:53 pm 12:53 Cloudy with Light Snow 33 0.6 24 -4.4 70 70 WNW 9 15 30.02 1017 8 13 0.00 0.03
1:43 pm 13:43 Cloudy with Light Snow 31 -0.6 26 -3.3 82 82 W 7 11 30.06 1018 3 4 0.00 0.03
1:50 pm 13:50 Cloudy with Light Snow 30 -1 27 -3 86 86 W 7 11 30.06 1018 1 2 0.00 0.00
1:53 pm 13:53 Cloudy with Light Snow 31 -0.6 27 -2.8 85 85 W 6 9 30.04 1017 1 2 0.01 0.25
2:07 pm 14:07 Cloudy with Light Snow 30 -1 28 -2 93 93 W 6 9 30.06 1018 1 1 0.00 0.00
2:31 pm 14:31 Cloudy with Light Snow 30 -1.1 29 -1.7 96 96 W 3 6 30.09 1019 1 2 0.01 0.25
2:53 pm 14:53 Cloudy with Light Snow 30 -1.1 29 -1.7 96 96 Calm 30.06 1018 1 1 0.02 0.51
3:15 pm 15:15 Cloudy with Light Snow 31 -0.6 30 -1.1 96 96 Calm 30.09 1019 1 2 0.01 0.25
3:37 pm 15:37 Cloudy with Light Snow 31 -0.6 30 -1.1 96 96 WSW 3 6 30.09 1019 1 1 0.02 0.51
3:50 pm 15:50 Cloudy with Light Snow 30 -1 30 -1 100 100 WSW 3 6 30.09 1019 1 2 0.00 0.00
3:53 pm 15:53 Cloudy with Light Snow 31 -0.6 30 -1.1 96 96 WSW 3 6 30.08 1019 1 2 0.02 0.51
4:09 pm 16:09 Cloudy with Light Snow 31 -0.6 30 -1.1 96 96 Calm 30.09 1019 3 4 0.00 0.03
4:19 pm 16:19 Cloudy with Light Snow 31 -0.6 30 -1.1 96 96 SW 3 6 30.12 1020 3 5 0.00 0.03
4:53 pm 16:53 Cloudy with Light Snow 31 -0.6 30 -1.1 96 96 W 3 6 30.09 1019 4 6 0.01 0.25
4:59 pm 16:59 Mostly Cloudy with Mist and Fog 22 -5.6 21 -6.1 96 96 ENE 10 17 30.00 1016 2 2 0.00 0.00
5:50 pm 17:50 Cloudy with Light Snow 30 -1 30 -1 100 100 Calm 30.12 1020 3 5 0.00 0.00
5:53 pm 17:53 Cloudy with Light Snow 31 -0.6 30 -1.1 96 96 Calm 30.11 1020 4 6 0.00 0.03
6:53 pm 18:53 Cloudy with Light Snow 31 -0.6 30 -1.1 96 96 WSW 3 6 30.12 1020 3 5 0.00 0.03
7:41 pm 19:41 Cloudy with Light Snow 31 -0.6 30 -1.1 96 96 SW 6 9 30.15 1021 6 10 0.01 0.25
7:53 pm 19:53 Cloudy with Light Snow 31 -0.6 31 -0.6 100 100 SW 6 9 30.14 1021 8 13 0.01 0.25
8:53 pm 20:53 Cloudy 31 -0.6 31 -0.6 100 100 W 6 9 30.15 1021 10 16 0.00 0.03
9:53 pm 21:53 Cloudy 31 -0.6 28 -2.2 89 89 WNW 12 19 30.16 1022 10 16 0.00 0.00
10:37 pm 22:37 Partly Cloudy 27 -2.8 25 -3.9 92 92 WNW 5 7 30.21 1023 10 16 0.00 0.00
10:53 pm 22:53 Mostly Clear 22 -5.6 22 -5.6 100 100 W 7 11 30.18 1022 8 13 0.00 0.00
11:29 pm 23:29 Mostly Cloudy with Mist and Fog 21 -6.1 20 -6.7 96 96 WSW 5 7 30.24 1024 6 10 0.00 0.00
11:36 pm 23:36 Mostly Cloudy 21 -6 21 -6 100 100 SW 5 7 30.24 1024 7 11 0.00 0.00
11:53 pm 23:53 Mostly Clear 20 -6.7 19 -7.2 96 96 SSW 9 15 30.20 1023 7 11 0.00 0.00

Powered by AerisWeather